sat.trackr.live / text

‹ back to catalog

STARLINK-11337 [DTC]

NORAD 61940 · 2024-209B

PAYLOAD ACTIVE UNKNOWN

§ Identity

Operator
Country
US
Launch date
2024-11-14
Launch site
AFWTR
Launch vehicle
Mass (kg)
RCS (m²)

Purposes: comms

External: N2YO · Heavens-Above · Gunter

§ Orbital elements

Epoch: 2026-05-24T20:24:31.189536Z

Period
91.74 min
Inclination
53.1579°
Eccentricity
0.0000925
Mean motion
15.69738367 rev/d
Perigee alt
359.0 km
Apogee alt
360.3 km
Semi-major
6,737.8 km
B*
9.6584e-4
RAAN
355.5365°
Arg perigee
77.3731°
Mean anomaly
282.7390°
Rev number
8,868

§ Raw data

STARLINK-11337 [DTC]1 61940U 24209B   26144.85036099  .00118242  00000+0  96584-3 0  99962 61940  53.1579 355.5365 0000925  77.3731 282.7390 15.69738367 88684

JSON: /api/v1/satellites/61940 · /tle

For live sub-satellite position, see the globe view (requires WebGL).

§ Visibility from observer

Set your observer location to see the next 7 days of passes ≥ 10°. The values pass through the URL so the page stays shareable.

No JS? Fill the form by hand. The geolocation button needs JavaScript.